Met observations

Date (UTC) Wind direction m/s kts. Vis. * Weather * Cloud * Temperature (°C) Dew point (°C) Air pressure (Hp)
21-08 04:51 4 07 VIS 10 km FEW 600ft SCT 1400ft BKN 3000ft 10.2 9.6 1016.7
21-08 04:41 4 07 VIS 10 km FEW 600ft SCT 1400ft BKN 3000ft 10.1 9.4 1016.8
21-08 04:31 3 06 VIS 10 km FEW 600ft SCT 1400ft BKN 3000ft 10.0 9.3 1017.0
21-08 04:21 3 06 VIS 10 km FEW 600ft SCT 1400ft BKN 3000ft 10.1 9.3 1017.0
21-08 04:11 3 05 VIS 10 km FEW 600ft SCT 1400ft BKN 3000ft 10.1 9.4 1017.1
21-08 04:01 3 05 VIS 10 km FEW 600ft SCT 1400ft BKN 3000ft 10.2 9.5 1017.3
21-08 03:51 2 04 VIS 10 km FEW 600ft SCT 1400ft BKN 3000ft 10.2 9.6 1017.3
21-08 03:41 2 04 VIS 10 km FEW 600ft SCT 1400ft BKN 3000ft 10.2 9.6 1017.4
21-08 03:31 3 05 VIS 10 km FEW 600ft SCT 1400ft BKN 3000ft 10.2 9.6 1017.4
21-08 03:21 2 04 VIS 10 km FEW 600ft SCT 1400ft BKN 3000ft 10.2 9.5 1017.4
21-08 03:11 3 05 VIS 10 km FEW 600ft SCT 1400ft BKN 3000ft 10.1 9.4 1017.5
21-08 03:01 3 05 VIS 10 km FEW 600ft SCT 1400ft BKN 3000ft 10.1 9.4 1017.7
21-08 02:51 3 05 VIS 10 km FEW 600ft SCT 1400ft BKN 3000ft 9.9 9.3 1017.7
21-08 02:41 3 05 VIS 10 km FEW 600ft SCT 1400ft BKN 3000ft 10.0 9.3 1017.7
21-08 02:31 3 05 VIS 10 km FEW 600ft SCT 1400ft BKN 3000ft 10.0 9.4 1017.7
21-08 02:21 3 05 VIS 10 km FEW 600ft SCT 1400ft BKN 3000ft 10.0 9.3 1017.8
21-08 02:11 3 05 VIS 10 km FEW 600ft SCT 1400ft BKN 3000ft 10.1 9.2 1017.8
21-08 02:01 3 05 VIS 10 km FEW 600ft SCT 1400ft BKN 3000ft 10.0 8.9 1018.0
21-08 01:51 2 04 VIS 10 km FEW 600ft SCT 1400ft BKN 3000ft 9.9 8.7 1018.0
21-08 01:41 0 00 VIS 10 km FEW 600ft SCT 1400ft BKN 3000ft 10.0 8.7 1018.1
21-08 01:31 2 03 VIS 10 km FEW 600ft SCT 1400ft BKN 3000ft 10.0 8.6 1018.2
21-08 01:21 1 02 VIS 10 km FEW 600ft SCT 1400ft BKN 3000ft 10.1 8.6 1018.0
21-08 01:11 1 02 VIS 10 km FEW 600ft SCT 1400ft BKN 3000ft 10.0 8.5 1018.2
21-08 01:01 2 04 VIS 10 km FEW 600ft SCT 1400ft BKN 3000ft 9.9 8.5 1018.2
21-08 00:51 2 03 VIS 10 km FEW 600ft SCT 1400ft BKN 3000ft 10.1 8.2 1018.1
21-08 00:41 1 02 VIS 10 km FEW 600ft SCT 1400ft BKN 3000ft 10.0 8.4 1018.2
21-08 00:31 2 03 VIS 10 km FEW 600ft SCT 1400ft BKN 3000ft 10.0 8.4 1018.2
21-08 00:21 1 02 VIS 10 km FEW 600ft SCT 1400ft BKN 3000ft 10.0 8.4 1018.2
21-08 00:11 0 00 VIS 10 km FEW 600ft SCT 1400ft BKN 3000ft 10.0 8.5 1018.2
21-08 00:01 0 00 VIS 10 km FEW 600ft SCT 1400ft BKN 3000ft 9.8 8.5 1018.2
20-08 23:51 1 01 VIS 10 km FEW 600ft SCT 1400ft BKN 3000ft 10.0 8.4 1018.2
20-08 23:41 0 00 VIS 10 km FEW 600ft SCT 1400ft BKN 3000ft 10.0 8.3 1018.2
20-08 23:31 0 00 VIS 10 km FEW 600ft SCT 1400ft BKN 3000ft 10.1 8.6 1018.2
20-08 23:21 1 02 VIS 10 km FEW 600ft SCT 1400ft BKN 3000ft 10.0 8.6 1018.3
20-08 23:11 2 03 VIS 10 km FEW 600ft SCT 1400ft BKN 3000ft 9.9 8.5 1018.4
20-08 23:01 2 03 VIS 10 km FEW 600ft SCT 1400ft BKN 3000ft 9.9 8.6 1018.3
20-08 22:51 3 06 VIS 10 km FEW 600ft SCT 1400ft BKN 3000ft 10.2 9.2 1018.4
20-08 22:41 3 05 VIS 10 km FEW 600ft SCT 1400ft BKN 3000ft 10.3 9.4 1018.3
20-08 22:31 2 04 VIS 10 km FEW 600ft SCT 1400ft BKN 3000ft 10.3 9.5 1018.2
20-08 22:21 2 03 VIS 10 km FEW 600ft SCT 1400ft BKN 3000ft 10.3 9.4 1018.1
20-08 22:11 2 03 VIS 10 km FEW 600ft SCT 1400ft BKN 3000ft 10.3 9.3 1018.1
20-08 22:01 2 03 VIS 10 km FEW 600ft SCT 1400ft BKN 3000ft 10.3 9.4 1018.1
20-08 21:51 2 04 VIS 10 km FEW 600ft SCT 1400ft BKN 3000ft 10.2 9.3 1018.1
20-08 21:41 3 05 VIS 10 km FEW 600ft SCT 1400ft BKN 3000ft 10.2 9.3 1018.0
20-08 21:31 3 06 VIS 10 km FEW 600ft SCT 1400ft BKN 3000ft 10.3 9.3 1018.0
20-08 21:21 3 06 VIS 10 km FEW 600ft SCT 1400ft BKN 3000ft 10.3 9.4 1017.9
20-08 21:11 3 06 VIS 10 km FEW 600ft SCT 1400ft BKN 3000ft 10.4 9.6 1017.9
20-08 21:01 2 04 VIS 10 km FEW 600ft SCT 1400ft BKN 3000ft 10.5 9.6 1017.9
20-08 20:51 1 02 VIS 10 km FEW 600ft SCT 1400ft BKN 3000ft 10.6 9.7 1018.0
20-08 20:41 2 03 VIS 10 km FEW 600ft SCT 1400ft BKN 3000ft 10.6 9.8 1017.8
20-08 20:31 1 01 VIS 10 km FEW 600ft SCT 1400ft BKN 3000ft 10.6 9.8 1017.7
20-08 20:21 1 01 VIS 10 km FEW 600ft SCT 1400ft BKN 3000ft 10.7 9.8 1017.7
20-08 20:11 1 01 VIS 10 km FEW 600ft SCT 1400ft BKN 3000ft 10.8 9.9 1017.6
20-08 20:01 1 02 VIS 10 km FEW 600ft SCT 1400ft BKN 3000ft 10.8 9.8 1017.7
20-08 19:51 1 02 VIS 10 km FEW 600ft SCT 1400ft BKN 3000ft 10.8 9.8 1017.7
20-08 19:41 2 03 VIS 10 km FEW 600ft SCT 1400ft BKN 3000ft 10.8 9.7 1017.7
20-08 19:31 2 04 VIS 10 km FEW 600ft SCT 1400ft BKN 3000ft 11.0 9.7 1017.7
20-08 19:21 3 06 VIS 10 km FEW 600ft SCT 1400ft BKN 3000ft 11.1 9.7 1017.7
20-08 19:11 2 03 VIS 10 km FEW 600ft SCT 1400ft BKN 3000ft 11.0 9.4 1017.7
20-08 19:01 2 04 VIS 10 km FEW 600ft SCT 1400ft BKN 3000ft 11.0 9.5 1017.8
20-08 18:51 4 08 VIS 10 km FEW 600ft SCT 1400ft BKN 4000ft 10.9 9.5 1017.7
20-08 18:41 4 07 VIS 10 km FEW 600ft SCT 1400ft BKN 4000ft 10.9 9.5 1017.5
20-08 18:31 5 09 VIS 10 km FEW 600ft SCT 1400ft BKN 4000ft 11.0 9.5 1017.4
20-08 18:21 6 11 VIS 10 km FEW 600ft SCT 1400ft BKN 4000ft 11.1 9.5 1017.4
20-08 18:11 6 11 VIS 10 km FEW 600ft SCT 1400ft BKN 4000ft 11.3 9.4 1017.5
20-08 18:01 6 11 VIS 10 km FEW 600ft SCT 1400ft BKN 4000ft 11.2 9.0 1017.4
20-08 17:51 5 10 VIS 10 km FEW 600ft SCT 1400ft BKN 4000ft 11.4 9.0 1017.5
20-08 17:41 6 12 VIS 10 km FEW 600ft SCT 1400ft BKN 4000ft 11.4 9.2 1017.5
20-08 17:31 6 11 VIS 10 km FEW 600ft SCT 1400ft BKN 4000ft 11.5 9.0 1017.6
20-08 17:21 6 12 VIS 10 km FEW 600ft SCT 1400ft BKN 4000ft 11.7 9.1 1017.6
20-08 17:11 6 11 VIS 10 km FEW 600ft SCT 1400ft BKN 4000ft 11.8 9.3 1017.6
20-08 17:01 5 10 VIS 10 km FEW 600ft SCT 1400ft BKN 4000ft 12.0 9.2 1017.6
20-08 16:51 5 10 VIS 10 km FEW 600ft SCT 1400ft BKN 4000ft 11.8 9.4 1017.6
20-08 16:41 5 09 VIS 10 km FEW 600ft SCT 1400ft BKN 4000ft 12.2 8.7 1017.6
20-08 16:31 4 08 VIS 10 km FEW 600ft SCT 1400ft BKN 4000ft 11.8 8.7 1017.7
20-08 16:21 4 08 VIS 10 km FEW 600ft SCT 1400ft BKN 4000ft 11.6 9.0 1017.7
20-08 16:11 4 08 VIS 10 km FEW 600ft SCT 1400ft BKN 4000ft 12.1 9.5 1017.7
20-08 16:01 4 08 VIS 10 km FEW 600ft SCT 1400ft BKN 4000ft 11.8 10.1 1017.7
20-08 15:51 4 08 VIS 10 km FEW 600ft SCT 1400ft BKN 4000ft 11.7 9.9 1017.7
20-08 15:41 5 09 VIS 10 km FEW 600ft SCT 1400ft BKN 4000ft 12.0 10.1 1017.7
20-08 15:31 5 09 VIS 10 km FEW 600ft SCT 1400ft BKN 4000ft 11.7 9.9 1017.6
20-08 15:21 5 09 VIS 10 km FEW 600ft SCT 1400ft BKN 4000ft 12.4 9.7 1017.5
20-08 15:11 5 09 VIS 10 km FEW 600ft SCT 1400ft BKN 4000ft 12.6 9.9 1017.6
20-08 15:01 4 08 VIS 10 km FEW 600ft SCT 1400ft BKN 4000ft 12.3 9.7 1017.7
20-08 14:51 4 08 VIS 10 km FEW 600ft SCT 1400ft BKN 4000ft 12.7 10.1 1017.7
20-08 14:41 5 09 VIS 10 km FEW 600ft SCT 1400ft BKN 4000ft 12.2 9.8 1017.7
20-08 14:31 5 09 VIS 10 km FEW 600ft SCT 1400ft BKN 4000ft 12.1 10.4 1017.7
20-08 14:21 3 06 VIS 10 km FEW 600ft SCT 1400ft BKN 4000ft 11.5 10.2 1017.7
20-08 14:11 4 07 VIS 10 km FEW 600ft SCT 1400ft BKN 4000ft 11.8 9.7 1017.8
20-08 14:01 3 05 VIS 10 km FEW 600ft SCT 1400ft BKN 4000ft 13.1 10.0 1017.8
20-08 13:51 3 05 VIS 10 km FEW 600ft SCT 1400ft BKN 4000ft 12.4 10.4 1017.7
20-08 13:41 4 08 VIS 10 km FEW 600ft SCT 1400ft BKN 4000ft 12.0 9.8 1017.8
20-08 13:31 4 07 VIS 10 km FEW 600ft SCT 1400ft BKN 4000ft 12.5 9.2 1017.6
20-08 13:21 4 07 VIS 10 km FEW 600ft SCT 1400ft BKN 4000ft 12.0 8.9 1017.5
20-08 13:11 3 06 VIS 10 km FEW 600ft SCT 1400ft BKN 4000ft 12.0 9.8 1017.6
20-08 13:01 3 06 VIS 10 km FEW 600ft SCT 1400ft BKN 4000ft 11.8 10.1 1017.5
20-08 12:51 4 08 VIS 10 km FEW 600ft SCT 1400ft BKN 4000ft 11.8 10.1 1017.5
20-08 12:41 4 08 VIS 10 km FEW 600ft SCT 1400ft BKN 4000ft 11.8 9.9 1017.4
20-08 12:31 5 09 VIS 10 km FEW 600ft SCT 1400ft BKN 4000ft 12.0 9.8 1017.3
20-08 12:21 4 08 VIS 10 km FEW 600ft SCT 1400ft BKN 4000ft 11.8 10.0 1017.2
20-08 12:11 4 08 VIS 10 km FEW 600ft SCT 1400ft BKN 4000ft 11.6 10.1 1017.2
20-08 12:01 4 08 VIS 10 km FEW 600ft SCT 1400ft BKN 4000ft 11.6 10.4 1017.2
20-08 11:51 5 09 VIS 10 km FEW 600ft SCT 1400ft BKN 4000ft 11.5 10.4 1017.2
20-08 11:41 4 07 VIS 10 km FEW 600ft SCT 1400ft BKN 4000ft 11.5 10.5 1017.1
20-08 11:31 4 07 VIS 10 km FEW 600ft SCT 1400ft BKN 4000ft 11.4 10.4 1017.1
20-08 11:21 4 08 VIS 10 km FEW 600ft SCT 1400ft BKN 4000ft 11.5 10.4 1017.1
20-08 11:11 2 03 VIS 10 km FEW 600ft SCT 1400ft BKN 4000ft 11.7 10.6 1017.1
20-08 11:01 2 03 VIS 10 km FEW 600ft SCT 1400ft BKN 4000ft 11.7 10.6 1017.1
20-08 10:51 1 02 VIS 10 km FEW 600ft SCT 1400ft BKN 4000ft 11.4 10.2 1017.0
20-08 10:41 1 02 VIS 10 km FEW 600ft SCT 1400ft BKN 4000ft 11.3 10.3 1017.0
20-08 10:31 3 06 VIS 10 km FEW 600ft SCT 1400ft BKN 4000ft 11.1 9.8 1016.9
20-08 10:21 1 01 VIS 10 km FEW 600ft SCT 1400ft BKN 4000ft 11.0 9.7 1016.9
20-08 10:11 0 00 VIS 10 km FEW 600ft SCT 1400ft BKN 4000ft 11.3 10.2 1016.8
20-08 10:01 1 02 VIS 10 km FEW 600ft SCT 1400ft BKN 4000ft 10.8 10.0 1016.7
20-08 09:51 1 01 VIS 10 km FEW 600ft SCT 1400ft BKN 4000ft 10.7 10.1 1016.6
20-08 09:41 0 00 VIS 10 km FEW 600ft SCT 1400ft BKN 4000ft 10.7 10.1 1016.6
20-08 09:31 2 03 VIS 10 km FEW 600ft SCT 1400ft BKN 4000ft 10.4 9.7 1016.6
20-08 09:21 2 04 VIS 10 km FEW 600ft SCT 1400ft BKN 4000ft 10.7 9.7 1016.7
20-08 09:11 0 00 VIS 10 km FEW 600ft SCT 1400ft BKN 4000ft 11.0 9.8 1016.5
20-08 09:01 1 01 VIS 10 km FEW 600ft SCT 1400ft BKN 4000ft 10.8 9.6 1016.4
20-08 08:51 1 01 VIS 10 km FEW 600ft SCT 1400ft BKN 4000ft 10.8 9.8 1016.4
20-08 08:41 1 01 VIS 10 km FEW 600ft SCT 1400ft BKN 4000ft 10.9 10.3 1016.3
20-08 08:31 1 02 VIS 10 km FEW 600ft SCT 1400ft BKN 4000ft 11.0 10.5 1016.3
20-08 08:21 1 02 VIS 10 km FEW 600ft SCT 1400ft BKN 4000ft 10.5 10.1 1016.4
20-08 08:11 0 00 VIS 10 km FEW 600ft SCT 1400ft BKN 4000ft 10.4 10.1 1016.3
20-08 08:01 0 00 VIS 10 km FEW 600ft SCT 1400ft BKN 4000ft 10.0 9.7 1016.3
20-08 07:51 0 00 VIS 10 km FEW 600ft SCT 1400ft BKN 4000ft 10.0 9.7 1016.3
20-08 07:41 0 00 VIS 10 km FEW 600ft SCT 1400ft BKN 4000ft 9.8 9.5 1016.2
20-08 07:31 0 00 VIS 10 km FEW 600ft SCT 1400ft BKN 4000ft 9.9 9.7 1016.1
20-08 07:21 0 00 VIS 10 km FEW 600ft SCT 1400ft BKN 4000ft 9.8 9.6 1016.1
20-08 07:11 1 01 VIS 10 km FEW 600ft SCT 1400ft BKN 4000ft 9.8 9.5 1016.0
20-08 07:01 1 01 VIS 10 km FEW 600ft SCT 1400ft BKN 4000ft 9.8 9.6 1015.9
20-08 06:51 1 02 VIS 10 km FEW 600ft SCT 1400ft BKN 4000ft 9.7 9.5 1015.8
20-08 06:41 1 02 VIS 10 km FEW 600ft SCT 1400ft BKN 4000ft 9.7 9.5 1015.8
20-08 06:31 1 01 VIS 10 km FEW 600ft SCT 1400ft BKN 4000ft 9.8 9.6 1015.8
20-08 06:21 1 02 VIS 10 km FEW 600ft SCT 1400ft BKN 4000ft 9.8 9.7 1015.8
20-08 06:11 2 03 VIS 10 km FEW 600ft SCT 1400ft BKN 4000ft 9.8 9.6 1015.7
20-08 06:01 1 01 VIS 10 km FEW 600ft SCT 1400ft BKN 4000ft 9.7 9.6 1015.8
20-08 05:51 1 02 VIS 10 km FEW 600ft SCT 1400ft BKN 4000ft 9.7 9.6 1015.8
20-08 05:41 0 00 VIS 10 km FEW 600ft SCT 1400ft BKN 4000ft 9.7 9.6 1015.7
20-08 05:31 2 04 VIS 10 km FEW 600ft SCT 1400ft BKN 4000ft 9.7 9.6 1015.7
20-08 05:21 2 03 VIS 10 km FEW 600ft SCT 1400ft BKN 4000ft 9.6 9.5 1015.6
20-08 05:11 2 04 VIS 10 km FEW 600ft SCT 1400ft BKN 4000ft 9.5 9.5 1015.6
20-08 05:01 2 04 VIS 10 km FEW 600ft SCT 1400ft BKN 4000ft 9.6 9.5 1015.5

Met data is updated every half hour and is for information only.
* Visibility, weather and cloud values are updated during the airport’s service hours only.
Flight planning documentation is available on opmet.dmi.dk.
For meteorological abbreviations, click here